Location: Molalla
(45.1473°N, 122.5770°W)
Time: 11:19:17
(UTC-08:00)

Vanguard 2 - Visible Passes

Search period start: 13 November 2019 00:00
Search period end: 23 November 2019 00:00
Orbit: 554 x 2937 km, 32.9° (Epoch: 12 November)

Date Brightness Start Highest point End Pass type
(mag) Time Alt. Az. Time Alt. Az. Time Alt. Az.
18 Nov 11.8 06:10:48 10° SSE 06:13:16 11° SSE 06:15:32 10° SE visible
19 Nov 11.6 06:24:45 10° S 06:31:07 16° SSE 06:36:13 10° ESE visible
20 Nov 11.3 06:40:34 10° SSW 06:48:58 21° SSE 06:55:10 10° ESE visible
21 Nov 11.8 04:52:37 10° S 04:57:19 12° SSE 05:01:28 10° SE visible
22 Nov 11.6 05:06:48 10° S 05:15:07 17° SSE 05:21:47 10° ESE visible
